Weather History for KLIC - January, 2013

Change the Weather History Date:

Sunday, January 27, 2013

  Actual Average Record
Temperature  
Mean Temperature 40 °F -  
Max Temperature 57 °F - - ()
Min Temperature 22 °F - - ()
Degree Days  
Heating Degree Days 25    
Month to date heating degree days 1105  
Cooling Degree Days 0    
Month to date cooling degree days 0  
Moisture  
Dew Point 30 °F    
Average Humidity 77    
Maximum Humidity 100    
Minimum Humidity 38    
Precipitation  
Precipitation 0.00 in - - ()
Month to date precipitation 0.16  
Year to date precipitation 0.16  
Sea Level Pressure  
Sea Level Pressure 29.71 in    
Wind  
Wind Speed 5 mph (NW)    
Max Wind Speed 15 mph    
Max Gust Speed 20 mph    
Visibility 10 miles    
Events      
T = Trace of Precipitation, MM = Missing Value Source: NWS Daily Summary

Daily Weather History Graph

Daily Weather History Graph

Search for Another Location

Airport or City:

Trip Planner

Search our weather history database for the weather conditions in past years. The results will help you decide how hot, cold, wet, or windy it might be!

Date:

Astronomy

Jan. 27, 2013 Rise Set
Actual Time 7:05 AM MST 5:09 PM MST
Civil Twilight 6:37 AM MST 5:38 PM MST
Nautical Twilight 6:04 AM MST 6:10 PM MST
Astronomical Twilight 5:33 AM MST 6:42 PM MST
Moon 6:05 PM MST (1/27) 7:00 AM MST (1/27)
Length of Visible Light 11h 01m
Length of Day
10h 04m
Full, 100% of the Moon is Illuminated
Jan 27
Full
Feb 3
Last Quarter
Feb 10
New
Feb 17
First Quarter
Feb 25
Full

Hourly Weather History & Observations

Time (MST) Temp. Windchill Dew Point Humidity Pressure Visibility Wind Dir Wind Speed Gust Speed Precip Events Conditions
12:55 AM 30.9 °F 26.2 °F 28.9 °F 92% 29.64 in 10.0 mi North 4.6 mph - N/A   Partly Cloudy
1:55 AM 33.1 °F 27.7 °F 30.0 °F 89% 29.63 in 10.0 mi West 5.8 mph - N/A   Clear
2:55 AM 30.0 °F 25.2 °F 28.0 °F 92% 29.64 in 10.0 mi WNW 4.6 mph - N/A   Clear
3:55 AM 30.0 °F 21.7 °F 28.0 °F 92% 29.65 in 10.0 mi NW 9.2 mph - N/A   Clear
4:55 AM 32.0 °F 24.8 °F 30.9 °F 96% 29.65 in 10.0 mi West 8.1 mph - N/A   Clear
5:55 AM 30.9 °F - 30.9 °F 100% 29.68 in 10.0 mi Calm Calm - N/A   Clear
6:55 AM 30.0 °F 25.2 °F 28.9 °F 96% 29.72 in 10.0 mi WNW 4.6 mph - N/A   Clear
7:55 AM 32.0 °F 25.6 °F 32.0 °F 100% 29.74 in 10.0 mi NW 6.9 mph - N/A   Clear
8:55 AM 39.0 °F 32.8 °F 37.0 °F 93% 29.73 in 10.0 mi NW 9.2 mph - N/A   Partly Cloudy
9:55 AM 45.0 °F 42.6 °F 37.9 °F 76% 29.73 in 10.0 mi NNW 4.6 mph - N/A   Clear
10:55 AM 51.1 °F - 37.0 °F 59% 29.73 in 10.0 mi NW 9.2 mph - N/A   Clear
11:55 AM 53.1 °F - 34.0 °F 48% 29.71 in 10.0 mi North 11.5 mph - N/A   Clear
12:55 PM 54.0 °F - 34.0 °F 47% 29.68 in 10.0 mi North 8.1 mph - N/A   Clear
1:55 PM 55.9 °F - 30.9 °F 39% 29.67 in 10.0 mi NNW 4.6 mph - N/A   Clear
2:55 PM 55.0 °F - 30.0 °F 38% 29.68 in 10.0 mi Calm Calm - N/A   Clear
3:55 PM 55.0 °F - 30.9 °F 40% 29.68 in 10.0 mi ESE 5.8 mph - N/A   Clear
4:55 PM 48.9 °F - 30.9 °F 50% 29.70 in 10.0 mi ESE 8.1 mph - N/A   Clear
5:55 PM 39.0 °F 33.4 °F 30.0 °F 70% 29.76 in 10.0 mi ESE 8.1 mph - N/A   Clear
6:55 PM 35.1 °F 29.3 °F 28.0 °F 76% 29.79 in 10.0 mi SE 6.9 mph - N/A   Clear
7:55 PM 32.0 °F 28.7 °F 28.0 °F 85% 29.81 in 10.0 mi South 3.5 mph - N/A   Clear
8:55 PM 25.0 °F - 21.9 °F 88% 29.81 in 10.0 mi Calm Calm - N/A   Clear
9:55 PM 30.0 °F 24.1 °F 27.0 °F 88% 29.76 in 10.0 mi SSE 5.8 mph - N/A   Clear
10:55 PM 24.1 °F - 23.0 °F 96% 29.75 in 10.0 mi Calm Calm - N/A   Clear
11:55 PM 23.0 °F - 23.0 °F 100% 29.74 in 10.0 mi Calm Calm - N/A   Clear